Regional Weather Roundup
Issued by NWS

Current Version | Previous Version | Text Only | Print | Product List | Glossary On
Versions: 1 2 3 4 5 6 7 8 9 10 11 12 13 14 15 16 17 18 19 20 21 22 23 24 25 26 27 28 29 30 31 32 33 34 35 36 37 38 39 40 41 42 43 44 45 46 47 48 49 50
000
ASUS42 KTBW 250216
RWRFL
FLORIDA REGIONAL WEATHER ROUNDUP
NATIONAL WEATHER SERVICE TAMPA BAY RUSKIN FL
1000 PM EDT SUN JUL 24 2016

NOTE: "FAIR" INDICATES FEW OR NO CLOUDS BELOW 12,000 FEET WITH NO
SIGNIFICANT WEATHER AND/OR OBSTRUCTIONS TO VISIBILITY.

FLZ001>010-012>015-112-114-115-250300-
PANHANDLE FLORIDA

CITY           SKY/WX    TMP DP  RH WIND       PRES   REMARKS
PENSACOLA      PTCLDY    85  73  67 SE6       29.99R
PENSACOLA NAS  CLEAR     85  74  69 SE8       29.98R
MILTON NAS     PTCLDY    82  79  90 E6        30.00
CRESTVIEW      CLEAR     77  74  90 CALM      30.02S
DUKE FIELD     FAIR      77  74  92 CALM      30.00R
VALPARAISO     MOCLDY    84  74  72 SE6       30.00R
MARY ESTHER    PTCLDY    85  74  70 SE6       29.98R
TRI COUNTY     FAIR      84  76  76 CALM      30.02R
PANAMA CITY    FAIR      81  75  82 E5        30.00R
TYNDALL AFB    CLEAR     80  74  82 E6        30.01R
APALACHICOLA   PTCLDY    84  77  79 S9        30.00R

STATION/POSITION SKY/WX   TEMP    WIND        PRES    WAVE   SWELL
                          AIR SEA DIR/SP/G            HT/PER HT/PER
                          (F)     (DEG/KT/KT) (MB)    (FT/S) (FT/S)
30.1N   87.6W              85 89  160/ 10/ 12 1015.1R   2/ 3
29.2N   88.2W              85 88  140/  4/  6 1014.4F
28.8N   86.0W              83 88  190/ 12/ 14 1015.7R   2/ 4
PANAMA CITY BEAC           85 88  150/ 13/ 16   N/A
TOWER C                    83     190/ 13/ 14 1016.5R
28.5N   84.5W              83 87  210/ 12/ 14 1016.2R   2/ 5

$$
FLZ011-016>038-118-127-128-134-139-239-250300-
NORTH FLORIDA

CITY           SKY/WX    TMP DP  RH WIND       PRES   REMARKS
MARIANNA       CLEAR     82  77  84 SW3       30.00R
TALLAHASSEE    PTCLDY    83  75  77 CALM      30.01R
PERRY          CLEAR     82  75  80 CALM      30.04R
LIVE OAK         N/A     77  77 100 SW3       30.06S THUNDER
CROSS CITY       N/A     79  73  82 CALM      30.03S
LAKE CITY      MOCLDY    82  68  61 S6        30.05R
GAINESVILLE    CLEAR     79  69  71 S5        30.04R
WILLISTON      FAIR      75  70  83 CALM      30.05R
PALATKA        MOCLDY    81  73  78 S6        30.05R
MAYPORT NAS    CLEAR     83  70  64 S9        30.05R
JACKSONVILLE   PTCLDY    82  72  71 SE10      30.04R
JAX NAS        PTCLDY    86  71  60 SE12      30.05R
JAX CECIL      CLEAR     81  72  74 CALM      30.04R
FERNANDINA BEA FAIR      86  72  62 S9        30.04R
ST AUGUSTINE   CLEAR     83  71  67 SE10      30.05S
PALM COAST     FAIR      80  73  78 SE5       30.05S

STATION/POSITION SKY/WX   TEMP    WIND        PRES    WAVE   SWELL
                          AIR SEA DIR/SP/G            HT/PER HT/PER
                          (F)     (DEG/KT/KT) (MB)    (FT/S) (FT/S)
SHELL POINT                85     210/ 10/ 13 1014.8
KEATON BEACH               85     210/  6/  9 1016.6R
CEDAR KEY                  83     180/ 11/ 13 1017.2R
FERNANDINA                 85     150/ 10/ 12   N/A
30.7N   81.3W                 87                N/A     3/ 4
MAYPORT                    85 89  160/  7/ 11   N/A
31.4N   80.9W              86 87  150/ 14/ 16 1016.9F   2/ 8   2/ 8
ST AUGUSTINE               84 87  150/ 14/ 16 1018.3R

$$
FLZ040-043>046-052-053-057-058-063-144-250300-
INTERIOR CENTRAL FLORIDA

CITY           SKY/WX    TMP DP  RH WIND       PRES   REMARKS
OCALA          CLEAR     77  68  73 CALM      30.05R
THE VILLAGES     N/A     77  72  83 CALM      29.96R
LEESBURG       CLEAR     76  72  87 SE3       30.06R
SANFORD        PTCLDY    82  72  71 S9        30.05R
ORLANDO EXEC   CLEAR     79  71  76 SE7       30.06R
ORLANDO INTL   PTCLDY    77  70  79 SE6       30.06R
KISSIMMEE      CLEAR     77  72  84 SW3       30.07R
WINTER HAVEN   CLEAR     76  69  79 SW5       30.08R
LAKELAND       PTCLDY    73  72  94 CALM      30.07R
BARTOW         FAIR      73  72  94 CALM      30.08R
OKEECHOBEE     CLEAR     77  72  83 S3        30.07S

$$
FLZ041-047-054-059-064-141-147-250300-
EAST CENTRAL FLORIDA

CITY           SKY/WX    TMP DP  RH WIND       PRES   REMARKS
DAYTONA BEACH  PTCLDY    82  73  74 SE3       30.05R
NEW SMYRNA BEA PTCLDY    82  73  74 SE12      30.06
JFK SPACE CTR  PTCLDY    81  73  78 S6        30.05R
CAPE CANAVERAL PTCLDY    82  74  76 S7        30.05R
PATRICK AFB    PTCLDY    82  73  73 SE7       30.06R
MELBOURNE      PTCLDY    80  72  76 W5        30.07R
VERO BEACH     CLEAR     80  70  71 SE6       30.06R
FT PIERCE      CLEAR     77  71  82 CALM      30.06R

STATION/POSITION SKY/WX   TEMP    WIND        PRES    WAVE   SWELL
                          AIR SEA DIR/SP/G            HT/PER HT/PER
                          (F)     (DEG/KT/KT) (MB)    (FT/S) (FT/S)
28.5N   80.2W              83 85  160/ 10/ 12 1018.0R
28.9N   78.5W              85 87  150/  6/ 10 1018.2
TRIDENT PIER               82 88  140/  8/ 11   N/A
28.4N   80.5W                 87                N/A     2/ 9
27.5N   80.2W                 86                N/A     2/ 8

$$
FLZ050-056-061-142-242-148-248-149-249-151-251-155-255-
160-260-250300-
WEST CENTRAL FLORIDA

CITY           SKY/WX    TMP DP  RH WIND       PRES   REMARKS
CRYSTAL RIVER  FAIR      72  72 100 CALM      30.05R
INVERNESS      FAIR      73  72  94 CALM      30.06R
BROOKSVILLE    CLEAR     73  72  96 S3        30.06R
ZEPHYRHILLS    FAIR      52  52 100 NE3       30.07R
CLEARWATER AIR FAIR      77  73  88 SE3       30.04R
ST PETE CLEARW PTCLDY    77  70  79 E7        30.04R
TAMPA INTL     PTCLDY    76  72  87 SE3       30.05R
TAMPA EXEC     CLEAR     73  72  94 CALM      30.06R
PLANT CITY     CLEAR     73  73 100 E5        30.08R
MACDILL AFB    PTCLDY    78  77  99 S6        30.04R
PETER O KNIGHT PTCLDY    79  73  83 SE3       30.05S
ST PETERSBURG  MOCLDY    80  74  81 S14       30.02S
SARASOTA       CLOUDY    79  73  82 E6        30.03R
VENICE         NOT AVBL

STATION/POSITION SKY/WX   TEMP    WIND        PRES    WAVE   SWELL
                          AIR SEA DIR/SP/G            HT/PER HT/PER
                          (F)     (DEG/KT/KT) (MB)    (FT/S) (FT/S)
27.3N   84.2W                 86                N/A     2/ 4
CLEARWATER BEACH           80 88  110/  6/  9   N/A
MIDDLE TAMPA BAY                  140/ 13/ 14   N/A
VENICE                     82 88  200/  8/  9 1017.2R

$$
FLZ066-069-070-075>078-162-262-165-265-250300-
SOUTHWEST FLORIDA AND KEYS

CITY           SKY/WX    TMP DP  RH WIND       PRES   REMARKS
PUNTA GORDA    CLEAR     78  76  93 CALM      30.06S
FT MYERS       CLEAR     79  72  79 S5        30.06R
SOUTHWEST INTL CLEAR     79  71  76 S5        30.06R
NAPLES         CLEAR     78  73  84 SE5       30.06R
MARCO ISLAND   CLEAR     75  72  88 CALM      30.07S
MARATHON       LGT RAIN  82  77  84 CALM      30.06S
KEY WEST NAS   CLOUDY    83  76  79 SE12      30.06S
KEY WEST INTL  MOCLDY    84  77  79 SE9       30.06S

STATION/POSITION SKY/WX   TEMP    WIND        PRES    WAVE   SWELL
                          AIR SEA DIR/SP/G            HT/PER HT/PER
                          (F)     (DEG/KT/KT) (MB)    (FT/S) (FT/S)
NAPLES                        87                N/A
26.0N   85.6W              82 86  220/ 12/ 14 1017.3R   3/ 5   2/ 6
DRY TORTUGAS               83     150/  5/  5 1017.5F
SAND KEY                   83     120/  9/ 11 1018.0F
LONG KEY                   83 86   90/  5/  5 1018.1F

$$
FLZ067-068-071>074-168-172>174-250300-
SOUTHEAST FLORIDA

CITY           SKY/WX    TMP DP  RH WIND       PRES   REMARKS
W PALM BEACH   MOCLDY    82  69  64 S6        30.07R
BOCA RATON     CLEAR     81  75  83 E6        30.07R
FT LAUDER-EXEC PTCLDY    82  72  71 E5        30.07R
FT LAUDERDALE  MOCLDY    83  74  74 SE8       30.07R
POMPANO BEACH  PTCLDY    82  74  76 SE5       30.07R
PEMBROKE PINES MOCLDY    82  73  74 E5        30.09R
OPA LOCKA      CLOUDY    81  73  76 SE5       30.08R
MIAMI          CLOUDY    82  74  76 E3        30.08R
WEST KENDALL   CLOUDY    80  75  84 CALM      30.07R
HOMESTEAD      CLOUDY    81  74  77 NW2       30.07R

STATION/POSITION SKY/WX   TEMP    WIND        PRES    WAVE   SWELL
                          AIR SEA DIR/SP/G            HT/PER HT/PER
                          (F)     (DEG/KT/KT) (MB)    (FT/S) (FT/S)
PORT EVERGLADES            83     130/  3/  5 1018.2R
VIRGINIA KEY               82 88  100/  5/  7   N/A
FOWEY ROCKS                83 84  100/  9/ 10 1019.0R
SETTLEMENT POINT           82     150/  3/  3 1018.8S

$$




USA.gov is the U.S. government's official web portal to all federal, state and local government web resources and services.